Simultaneous Nadir Overpasses (SNOs) Predictions

Prediction of SNOs between NOAA-19 and METOP-C Satellite Orbit:

Table of predicted SNOs for the next 14.0 days since TLE Epoch: 4/1/2023
Index Date (NOAA-19) Time (NOAA-19) Lat,Lon (NOAA-19) SZA (NOAA-19 ) Date (METOP-C) Time (METOP-C) Lat,Lon (METOP-C) SZA (METOP-C ) Distance(km) Time Diff (sec)
1 04/11/2023 03:07:01 80.93, 167.77 74.31 04/11/2023 03:08:11 80.92, 167.68 74.32 1.97 70
2 04/11/2023 03:58:02 -80.93, -24.80 105.69 04/11/2023 03:58:51 -80.94, -24.68 105.65 2.18 49
3 04/11/2023 04:48:59 80.93, 142.74 74.33 04/11/2023 04:49:32 80.93, 142.55 74.33 3.22 33
4 04/11/2023 05:40:01 -80.93, -50.20 105.70 04/11/2023 05:40:13 -80.93, -50.16 105.70 0.76 12
5 04/11/2023 06:30:58 80.93, 117.33 74.31 04/11/2023 06:30:53 80.94, 117.43 74.33 2.16 5
6 04/11/2023 07:21:59 -80.93, -75.23 105.68 04/11/2023 07:21:34 -80.94, -75.28 105.69 1.12 25
7 04/11/2023 08:12:57 80.93, 91.91 74.30 04/11/2023 08:12:15 80.94, 91.95 74.29 0.70 42



Historial Predications of SNOs between NOAA-19 and METOP-C
